QTR59N OTHH-OMDB

Flight info

Callsign QTR59N
Flight time 0h 48m
Altitude 25000
Route ALSEM3E/34R ALSEM L305 ITBUL M677 VUTEB
Aircraft A346/H-SDE2E3FGHIJ3J4J5M1RWXY/LB1D1

Departure

Time 2026-05-06 19:46
Airport Hamad International Airport (OTHH)

Arrival

Time 2026-05-06 20:34
Airport Dubai International Airport (OMDB)
Time Latitude Longitude Altitude Speed Heading
2026-05-06 19:07 25.26597 51.61267 30 ft 0 kts 245°
2026-05-06 19:26 25.26607 51.61289 30 ft 4 kts 245°
2026-05-06 19:26 25.26615 51.61311 30 ft 4 kts 249°
2026-05-06 19:27 25.26620 51.61336 29 ft 4 kts 277°
2026-05-06 19:27 25.26613 51.61354 28 ft 4 kts 314°
2026-05-06 19:27 25.26596 51.61365 28 ft 4 kts 339°
2026-05-06 19:27 25.26571 51.61376 28 ft 4 kts 338°
2026-05-06 19:28 25.26547 51.61387 29 ft 2 kts 338°
2026-05-06 19:28 25.26545 51.61388 29 ft 0 kts 338°
2026-05-06 19:32 25.26562 51.61380 28 ft 6 kts 338°
2026-05-06 19:32 25.26620 51.61355 27 ft 12 kts 339°
2026-05-06 19:33 25.26726 51.61333 31 ft 19 kts 19°
2026-05-06 19:33 25.26825 51.61467 31 ft 25 kts 54°
2026-05-06 19:33 25.26963 51.61614 30 ft 21 kts 50°
2026-05-06 19:33 25.27054 51.61699 30 ft 19 kts 351°
2026-05-06 19:34 25.27190 51.61646 30 ft 22 kts 338°
2026-05-06 19:34 25.27339 51.61581 30 ft 24 kts 338°
2026-05-06 19:34 25.27466 51.61524 30 ft 14 kts 338°
2026-05-06 19:34 25.27517 51.61481 30 ft 8 kts 279°
2026-05-06 19:35 25.27495 51.61407 30 ft 12 kts 247°
2026-05-06 19:35 25.27460 51.61310 30 ft 15 kts 248°
2026-05-06 19:35 25.27416 51.61189 30 ft 19 kts 248°
2026-05-06 19:35 25.27364 51.61044 30 ft 22 kts 248°
2026-05-06 19:36 25.27301 51.60873 30 ft 25 kts 248°
2026-05-06 19:36 25.27238 51.60696 30 ft 21 kts 248°
2026-05-06 19:36 25.27179 51.60533 30 ft 24 kts 249°
2026-05-06 19:36 25.27114 51.60348 30 ft 27 kts 249°
2026-05-06 19:37 25.27047 51.60204 30 ft 11 kts 199°
2026-05-06 19:37 25.26953 51.60232 30 ft 16 kts 159°
2026-05-06 19:37 25.26837 51.60282 30 ft 20 kts 159°
2026-05-06 19:37 25.26747 51.60321 30 ft 22 kts 158°
2026-05-06 19:38 25.26544 51.60412 30 ft 25 kts 158°
2026-05-06 19:38 25.26373 51.60487 31 ft 22 kts 158°
2026-05-06 19:38 25.26235 51.60547 31 ft 18 kts 158°
2026-05-06 19:38 25.26106 51.60604 31 ft 21 kts 158°
2026-05-06 19:39 25.25957 51.60671 31 ft 24 kts 159°
2026-05-06 19:39 25.25814 51.60732 30 ft 13 kts 166°
2026-05-06 19:39 25.25733 51.60688 31 ft 15 kts 236°
2026-05-06 19:39 25.25721 51.60663 31 ft 0 kts 246°
2026-05-06 19:43 25.25715 51.60647 31 ft 6 kts 248°
2026-05-06 19:44 25.25696 51.60567 30 ft 14 kts 265°
2026-05-06 19:44 25.25724 51.60465 31 ft 14 kts 311°
2026-05-06 19:44 25.25791 51.60430 32 ft 8 kts 337°
2026-05-06 19:44 25.25795 51.60428 32 ft 0 kts 337°
2026-05-06 19:45 25.25796 51.60428 32 ft 0 kts 337°
2026-05-06 19:45 25.26001 51.60337 33 ft 71 kts 339°
2026-05-06 19:45 25.26690 51.60036 30 ft 139 kts 338°
2026-05-06 19:45 25.27747 51.59572 253 ft 174 kts 339°
2026-05-06 19:46 25.28854 51.59079 1133 ft 168 kts 338°
2026-05-06 19:46 25.29953 51.58609 1901 ft 170 kts 348°
2026-05-06 19:46 25.31151 51.58741 2353 ft 181 kts 23°
2026-05-06 19:46 25.32148 51.59666 2644 ft 198 kts 56°
2026-05-06 19:47 25.32551 51.61176 2947 ft 216 kts 90°
2026-05-06 19:47 25.32041 51.62780 3198 ft 237 kts 127°
2026-05-06 19:47 25.30921 51.64209 3544 ft 254 kts 122°
2026-05-06 19:47 25.30345 51.66084 3907 ft 267 kts 90°
2026-05-06 19:48 25.30513 51.68153 4522 ft 271 kts 79°
2026-05-06 19:48 25.30851 51.70219 5256 ft 273 kts 78°
2026-05-06 19:48 25.31201 51.72308 6001 ft 276 kts 78°
2026-05-06 19:48 25.31540 51.74425 6711 ft 280 kts 79°
2026-05-06 19:49 25.31869 51.76566 7467 ft 283 kts 79°
2026-05-06 19:49 25.32191 51.78737 8249 ft 286 kts 79°
2026-05-06 19:49 25.32509 51.80929 9046 ft 290 kts 79°
2026-05-06 19:49 25.32826 51.83147 9881 ft 293 kts 79°
2026-05-06 19:50 25.33144 51.85394 10607 ft 299 kts 79°
2026-05-06 19:50 25.33475 51.87734 11051 ft 315 kts 79°
2026-05-06 19:50 25.33823 51.90202 11485 ft 333 kts 80°
2026-05-06 19:50 25.34188 51.92812 11882 ft 351 kts 80°
2026-05-06 19:51 25.34572 51.95556 12266 ft 368 kts 80°
2026-05-06 19:51 25.34973 51.98431 12667 ft 384 kts 80°
2026-05-06 19:51 25.35386 52.01397 13389 ft 390 kts 80°
2026-05-06 19:51 25.35802 52.04393 14184 ft 392 kts 80°
2026-05-06 19:52 25.36219 52.07398 14903 ft 397 kts 80°
2026-05-06 19:52 25.36646 52.10465 15554 ft 403 kts 80°
2026-05-06 19:52 25.37075 52.13556 16215 ft 409 kts 81°
2026-05-06 19:52 25.37502 52.16645 16864 ft 415 kts 81°
2026-05-06 19:53 25.37942 52.19823 17507 ft 420 kts 81°
2026-05-06 19:53 25.38388 52.23058 18149 ft 426 kts 81°
2026-05-06 19:53 25.38837 52.26323 18702 ft 432 kts 81°
2026-05-06 19:53 25.39292 52.29642 19251 ft 437 kts 81°
2026-05-06 19:54 25.39753 52.33009 19814 ft 443 kts 82°
2026-05-06 19:54 25.40217 52.36401 20368 ft 448 kts 82°
2026-05-06 19:54 25.40686 52.39836 20940 ft 453 kts 82°
2026-05-06 19:54 25.41159 52.43307 21507 ft 458 kts 82°
2026-05-06 19:55 25.41637 52.46815 22097 ft 463 kts 82°
2026-05-06 19:55 25.42121 52.50372 22684 ft 467 kts 82°
2026-05-06 19:55 25.42599 52.53892 23259 ft 471 kts 82°
2026-05-06 19:55 25.43096 52.57556 23743 ft 476 kts 82°
2026-05-06 19:56 25.43592 52.61211 24214 ft 480 kts 82°
2026-05-06 19:56 25.44081 52.64828 24637 ft 484 kts 82°
2026-05-06 19:56 25.44582 52.68545 24810 ft 487 kts 82°
2026-05-06 19:56 25.45103 52.72260 24803 ft 486 kts 80°
2026-05-06 19:57 25.45743 52.75935 24802 ft 487 kts 79°
2026-05-06 19:57 25.46428 52.79625 24808 ft 487 kts 78°
2026-05-06 19:57 25.47136 52.83311 24804 ft 486 kts 77°
2026-05-06 19:57 25.47963 52.86951 24803 ft 487 kts 75°
2026-05-06 19:58 25.48850 52.90583 24801 ft 487 kts 75°
2026-05-06 19:58 25.49747 52.94201 24803 ft 487 kts 75°
2026-05-06 19:58 25.50639 52.97793 24803 ft 487 kts 75°
2026-05-06 19:58 25.51536 53.01421 24804 ft 487 kts 75°
2026-05-06 19:59 25.52443 53.05100 24799 ft 487 kts 75°
2026-05-06 19:59 25.53322 53.08676 24800 ft 487 kts 75°
2026-05-06 19:59 25.54218 53.12328 24799 ft 487 kts 75°
2026-05-06 19:59 25.55106 53.15956 24804 ft 487 kts 75°
2026-05-06 20:00 25.55982 53.19536 24799 ft 487 kts 75°
2026-05-06 20:00 25.56886 53.23237 24797 ft 487 kts 75°
2026-05-06 20:00 25.57775 53.26880 24797 ft 487 kts 75°
2026-05-06 20:00 25.58669 53.30551 24796 ft 487 kts 75°
2026-05-06 20:01 25.59555 53.34187 24797 ft 487 kts 75°
2026-05-06 20:01 25.60435 53.37810 24797 ft 487 kts 75°
2026-05-06 20:01 25.61320 53.41454 24794 ft 487 kts 75°
2026-05-06 20:01 25.62199 53.45087 24792 ft 487 kts 75°
2026-05-06 20:02 25.63089 53.48764 24789 ft 487 kts 75°
2026-05-06 20:02 25.63969 53.52400 24793 ft 487 kts 75°
2026-05-06 20:02 25.64842 53.56011 24798 ft 487 kts 75°
2026-05-06 20:02 25.65728 53.59681 24793 ft 487 kts 75°
2026-05-06 20:03 25.66598 53.63283 24797 ft 487 kts 75°
2026-05-06 20:03 25.67480 53.66937 24797 ft 487 kts 75°
2026-05-06 20:03 25.68359 53.70590 24793 ft 487 kts 75°
2026-05-06 20:03 25.69234 53.74234 24804 ft 487 kts 75°
2026-05-06 20:04 25.70119 53.77929 24793 ft 487 kts 75°
2026-05-06 20:04 25.70978 53.81521 24793 ft 487 kts 75°
2026-05-06 20:04 25.71869 53.85250 24789 ft 487 kts 75°
2026-05-06 20:04 25.72742 53.88902 24792 ft 487 kts 75°
2026-05-06 20:05 25.73626 53.92605 24797 ft 487 kts 75°
2026-05-06 20:05 25.74512 53.96325 24788 ft 487 kts 75°
2026-05-06 20:05 25.75411 54.00003 24792 ft 487 kts 73°
2026-05-06 20:05 25.76481 54.03717 24771 ft 486 kts 71°
2026-05-06 20:06 25.77598 54.07257 24491 ft 480 kts 70°
2026-05-06 20:06 25.78730 54.10765 23885 ft 478 kts 70°
2026-05-06 20:06 25.79488 54.13115 23490 ft 476 kts 70°
2026-05-06 20:06 25.80863 54.17733 22735 ft 469 kts 77°
2026-05-06 20:07 25.81170 54.20092 22291 ft 466 kts 86°
2026-05-06 20:07 25.80744 54.24869 21460 ft 460 kts 105°
2026-05-06 20:07 25.79748 54.28257 20964 ft 453 kts 110°
2026-05-06 20:07 25.78697 54.31508 20479 ft 447 kts 110°
2026-05-06 20:08 25.77640 54.34755 20006 ft 442 kts 110°
2026-05-06 20:08 25.76593 54.38016 19530 ft 436 kts 110°
2026-05-06 20:08 25.75912 54.40165 19209 ft 433 kts 109°
2026-05-06 20:08 25.74577 54.44412 18588 ft 427 kts 109°
2026-05-06 20:09 25.73928 54.46489 18282 ft 424 kts 109°
2026-05-06 20:09 25.72965 54.49571 17778 ft 419 kts 109°
2026-05-06 20:09 25.72012 54.52619 17312 ft 414 kts 109°
2026-05-06 20:09 25.71065 54.55648 16841 ft 409 kts 108°
2026-05-06 20:10 25.70132 54.58634 16387 ft 404 kts 108°
2026-05-06 20:10 25.69215 54.61544 15942 ft 399 kts 108°
2026-05-06 20:10 25.68281 54.64455 15504 ft 395 kts 108°
2026-05-06 20:10 25.67354 54.67333 15045 ft 392 kts 108°
2026-05-06 20:11 25.66439 54.70174 14610 ft 388 kts 107°
2026-05-06 20:11 25.65534 54.72987 14176 ft 385 kts 107°
2026-05-06 20:11 25.64631 54.75796 13726 ft 382 kts 107°
2026-05-06 20:11 25.63750 54.78539 13252 ft 378 kts 107°
2026-05-06 20:12 25.62872 54.81277 12795 ft 375 kts 107°
2026-05-06 20:12 25.61994 54.84009 12341 ft 371 kts 107°
2026-05-06 20:12 25.61096 54.86690 11896 ft 368 kts 109°
2026-05-06 20:12 25.60079 54.89358 11744 ft 378 kts 110°
2026-05-06 20:13 25.59017 54.92088 11767 ft 381 kts 111°
2026-05-06 20:13 25.57957 54.94800 11781 ft 381 kts 111°
2026-05-06 20:13 25.56897 54.97514 11787 ft 381 kts 111°
2026-05-06 20:13 25.55854 55.00184 11586 ft 381 kts 111°
2026-05-06 20:14 25.54757 55.02885 11069 ft 379 kts 114°
2026-05-06 20:14 25.53536 55.05458 10730 ft 376 kts 117°
2026-05-06 20:14 25.52208 55.08032 10754 ft 378 kts 118°
2026-05-06 20:14 25.50902 55.10542 10779 ft 379 kts 118°
2026-05-06 20:15 25.49574 55.13094 10793 ft 379 kts 118°
2026-05-06 20:15 25.48242 55.15655 10824 ft 379 kts 118°
2026-05-06 20:15 25.46874 55.18210 10860 ft 376 kts 121°
2026-05-06 20:15 25.45384 55.20567 10825 ft 361 kts 125°
2026-05-06 20:16 25.43793 55.22674 10629 ft 350 kts 129°
2026-05-06 20:16 25.42189 55.24646 10493 ft 338 kts 130°
2026-05-06 20:16 25.40624 55.26551 10336 ft 326 kts 130°
2026-05-06 20:16 25.39144 55.28356 10235 ft 314 kts 130°
2026-05-06 20:17 25.37697 55.30128 10116 ft 302 kts 130°
2026-05-06 20:17 25.36270 55.31809 10011 ft 291 kts 135°
2026-05-06 20:17 25.35019 55.32938 9932 ft 286 kts 143°
2026-05-06 20:17 25.33284 55.34099 9582 ft 288 kts 150°
2026-05-06 20:18 25.31475 55.35155 9241 ft 287 kts 152°
2026-05-06 20:18 25.29675 55.36184 8918 ft 286 kts 152°
2026-05-06 20:18 25.27888 55.37211 8596 ft 284 kts 152°
2026-05-06 20:18 25.26126 55.38233 8283 ft 283 kts 152°
2026-05-06 20:19 25.24350 55.39270 7985 ft 281 kts 152°
2026-05-06 20:19 25.22614 55.40285 7676 ft 280 kts 153°
2026-05-06 20:19 25.20893 55.41292 7388 ft 278 kts 153°
2026-05-06 20:19 25.19175 55.42296 7090 ft 277 kts 153°
2026-05-06 20:20 25.17445 55.43307 6905 ft 280 kts 153°
2026-05-06 20:20 25.15708 55.44322 6932 ft 284 kts 153°
2026-05-06 20:20 25.13942 55.45353 6953 ft 285 kts 153°
2026-05-06 20:20 25.12195 55.46408 6979 ft 285 kts 147°
2026-05-06 20:21 25.10685 55.47883 6989 ft 286 kts 130°
2026-05-06 20:21 25.09555 55.49707 7000 ft 287 kts 122°
2026-05-06 20:21 25.08525 55.51606 7003 ft 287 kts 121°
2026-05-06 20:21 25.07502 55.53506 7008 ft 287 kts 121°
2026-05-06 20:22 25.06472 55.55388 7010 ft 287 kts 122°
2026-05-06 20:22 25.05427 55.57271 7012 ft 287 kts 122°
2026-05-06 20:22 25.04389 55.59129 7015 ft 287 kts 122°
2026-05-06 20:22 25.03316 55.61057 7025 ft 287 kts 122°
2026-05-06 20:23 25.02267 55.62955 7024 ft 287 kts 122°
2026-05-06 20:23 25.01226 55.64840 7024 ft 287 kts 122°
2026-05-06 20:23 25.00176 55.66734 7024 ft 287 kts 122°
2026-05-06 20:23 24.99114 55.68633 7030 ft 287 kts 122°
2026-05-06 20:24 24.98038 55.70552 7028 ft 287 kts 122°
2026-05-06 20:24 24.96994 55.72412 7032 ft 287 kts 122°
2026-05-06 20:24 24.95933 55.74307 6982 ft 288 kts 122°
2026-05-06 20:24 24.95132 55.76357 6544 ft 293 kts 98°
2026-05-06 20:25 24.95372 55.78582 6086 ft 295 kts 66°
2026-05-06 20:25 24.96661 55.80413 5734 ft 291 kts 35°
2026-05-06 20:25 24.98548 55.81181 5370 ft 287 kts
2026-05-06 20:25 25.00462 55.80695 5035 ft 282 kts 328°
2026-05-06 20:26 25.01860 55.79197 4738 ft 277 kts 301°
2026-05-06 20:26 25.02818 55.77325 4442 ft 275 kts 299°
2026-05-06 20:26 25.03764 55.75547 4155 ft 273 kts 300°
2026-05-06 20:26 25.04762 55.73724 3852 ft 272 kts 301°
2026-05-06 20:27 25.05762 55.71907 3551 ft 271 kts 301°
2026-05-06 20:27 25.06742 55.70124 3256 ft 269 kts 301°
2026-05-06 20:27 25.07709 55.68363 3036 ft 264 kts 301°
2026-05-06 20:27 25.08644 55.66659 3028 ft 249 kts 301°
2026-05-06 20:28 25.09527 55.65050 3021 ft 236 kts 301°
2026-05-06 20:28 25.10373 55.63509 3010 ft 227 kts 300°
2026-05-06 20:28 25.11174 55.62049 2867 ft 221 kts 300°
2026-05-06 20:28 25.11969 55.60602 2727 ft 218 kts 301°
2026-05-06 20:29 25.12762 55.59157 2606 ft 214 kts 301°
2026-05-06 20:29 25.13532 55.57757 2340 ft 210 kts 300°
2026-05-06 20:29 25.14288 55.56382 2033 ft 203 kts 301°
2026-05-06 20:29 25.15001 55.55086 1986 ft 188 kts 301°
2026-05-06 20:30 25.15649 55.53907 1977 ft 172 kts 301°
2026-05-06 20:30 25.16827 55.51766 1994 ft 159 kts 300°
2026-05-06 20:30 25.17404 55.50718 2009 ft 159 kts 301°
2026-05-06 20:31 25.17984 55.49664 2008 ft 159 kts 301°
2026-05-06 20:31 25.18564 55.48610 1879 ft 159 kts 301°
2026-05-06 20:31 25.19139 55.47568 1670 ft 158 kts 301°
2026-05-06 20:31 25.19714 55.46525 1456 ft 157 kts 301°
2026-05-06 20:32 25.20291 55.45479 1221 ft 156 kts 301°
2026-05-06 20:32 25.20852 55.44454 1045 ft 155 kts 300°
2026-05-06 20:32 25.21401 55.43417 885 ft 154 kts 300°
2026-05-06 20:32 25.21961 55.42396 685 ft 154 kts 302°
2026-05-06 20:33 25.22540 55.41402 491 ft 153 kts 302°
2026-05-06 20:33 25.23106 55.40391 284 ft 153 kts 301°
2026-05-06 20:33 25.23688 55.39313 44 ft 151 kts 301°
2026-05-06 20:33 25.24169 55.38449 40 ft 99 kts 302°
2026-05-06 20:34 25.24444 55.37952 39 ft 50 kts 302°
2026-05-06 20:34 25.24565 55.37720 36 ft 22 kts 292°
2026-05-06 20:34 25.24610 55.37551 36 ft 19 kts 276°
2026-05-06 20:34 25.24620 55.37378 33 ft 24 kts 274°
2026-05-06 20:35 25.24656 55.37208 32 ft 19 kts 300°
2026-05-06 20:35 25.24735 55.37065 32 ft 22 kts 302°
2026-05-06 20:35 25.24823 55.36909 32 ft 24 kts 299°
2026-05-06 20:35 25.24883 55.36710 31 ft 26 kts 287°
2026-05-06 20:36 25.24966 55.36536 31 ft 23 kts 301°
2026-05-06 20:36 25.25052 55.36382 31 ft 25 kts 302°
2026-05-06 20:36 25.25145 55.36216 31 ft 23 kts 301°
2026-05-06 20:36 25.25244 55.36040 28 ft 26 kts 302°
2026-05-06 20:37 25.25344 55.35863 30 ft 23 kts 302°
2026-05-06 20:37 25.25431 55.35707 30 ft 22 kts 302°
2026-05-06 20:37 25.25522 55.35544 30 ft 25 kts 301°
2026-05-06 20:37 25.25620 55.35370 30 ft 27 kts 302°
2026-05-06 20:38 25.25723 55.35187 30 ft 29 kts 302°
2026-05-06 20:38 25.25822 55.35006 30 ft 25 kts 301°
2026-05-06 20:38 25.25919 55.34834 30 ft 26 kts 302°
2026-05-06 20:38 25.25969 55.34748 30 ft 19 kts 304°
2026-05-06 20:39 25.26007 55.34682 30 ft 6 kts 301°
2026-05-06 20:39 25.26022 55.34653 30 ft 6 kts 296°
2026-05-06 20:39 25.26046 55.34593 30 ft 10 kts 278°
2026-05-06 20:39 25.26040 55.34503 30 ft 7 kts 249°
2026-05-06 20:40 25.26014 55.34478 30 ft 6 kts 210°
2026-05-06 20:40 25.25968 55.34449 30 ft 6 kts 210°
2026-05-06 20:40 25.25953 55.34440 30 ft 3 kts 209°
2026-05-06 20:40 25.25939 55.34431 30 ft 0 kts 208°